Regional Weather Roundup
Issued by NWS Albany, NY

Home | Current Version | Previous Version | Graphics & Text | Print | Product List | Glossary Off
Versions: 1 2 3 4 5 6 7 8 9 10 11 12 13 14 15 16 17 18 19 20 21 22 23 24 25

000
ASUS41 KALY 170810
RWRALY

NEW YORK STATE HOURLY WEATHER ROUNDUP
NATIONAL WEATHER SERVICE ALBANY NY
300 AM EST SAT FEB 17 2018

NOTE: "FAIR" INDICATES FEW OR NO CLOUDS BELOW 12,000 FEET WITH NO
SIGNIFICANT WEATHER AND/OR NO OBSTRUCTIONS TO VISIBILITY.

NYZ032-033-038>043-046>054-057>066-NYZ062>081-082-084-170900-
EAST


CITY           SKY/WX    TMP DP  RH WIND       PRES   REMARKS
ALBANY         FAIR      26  15  63 NW10      30.27R WCI  16
GLENS FALLS    FAIR      23   7  50 NW16      30.26R WCI  10
POUGHKEEPSIE   FAIR      26  17  68 CALM      30.27R
NEWBURGH       CLEAR     25  18  74 NW7       30.26R WCI  17
MONTGOMERY     FAIR      27  14  58 W9        30.26R WCI  18
WHITE PLAINS   FAIR      28  16  60 NW7       30.24R WCI  21
ISLIP          FAIR      32  19  58 N9        30.24R WCI  24
NEW YORK CITY  FAIR      33  16  49 NW12      30.26R WCI  24
CENTRAL PARK   FAIR      32  14  47 VRB6      30.29R WCI  26
$$

NYZ005>009-017-018-044>046-055-056-170900-
CENTRAL


CITY           SKY/WX    TMP DP  RH WIND       PRES   REMARKS
FULTON         MOCLDY    22  16  78 CALM      30.29R
SYRACUSE       FAIR      20  16  84 CALM      30.28S
ROME           FAIR      21  14  74 W6        30.29S WCI  13
ELMIRA         FAIR      21  13  71 CALM      30.29R
BINGHAMTON     MOCLDY    19  11  70 NW6       30.21R WCI  11
MONTICELLO       N/A     20  12  71 MISG        N/A
$$

NYZ026>034-041>043-087-170900-
NORTH


CITY           SKY/WX    TMP DP  RH WIND       PRES   REMARKS
WATERTOWN      FAIR      16  10  77 SW5       30.29R WCI   9
FORT DRUM      NOT AVBL
OGDENSBURG     FAIR       0  -3  88 CALM      30.27R
MASSENA        FAIR       5   2  87 CALM      30.28R
SARANAC LAKE   FAIR      -1  -3  91 CALM      30.15R
PLATTSBURGH    FAIR      18   6  59 CALM      30.27R
$$

NYZ001>004-010>016-019>021-085-170900-
WEST


CITY           SKY/WX    TMP DP  RH WIND       PRES   REMARKS
NIAGARA FALLS  FAIR      22  14  71 S7        30.29R WCI  13
BUFFALO        FAIR      20  16  84 S7        30.30R WCI  11
DUNKIRK        FAIR      22  15  75 S9        30.31R WCI  12
JAMESTOWN        N/A    N/A N/A N/A MISG        N/A
WELLSVILLE     FAIR      17  10  74 W8        30.22R WCI   7
ROCHESTER      FAIR      20  16  84 SW6       30.29R WCI  12
PENN YAN       FAIR      18  10  71 CALM      30.28R
$$

             KEY
       WCI = WIND CHILL INDEX
       VSB = VISIBILITY
       HX  = HEAT INDEX
$$




USA.gov is the U.S. government's official web portal to all federal, state and local government web resources and services.